Weather in Manacor

Spain     39°34′29″N   3°12′10″E
temp.,
°C
wind,
m/s
gust,
m/s
humid.,
%
clouds,
%
prec.,
mm/h
press.,
hPa
HPBL,
m
16 april, fri
fri1623:00+12ene6866100 0.0 1017609
02:00+11nne4875100 0.0 1015344
05:00+10nne4870100 0.0 1015400
08:00+11nne5964100 0.0 1015496
11:00+14nne81050100 0.0 10151177
14:00+15ne885482 0.0 10151672
17:00+14nne8858100 0.1 10151389
20:00+12nne68695 0.1 1016769
17 april, sat
sat1723:00+9n358040 0.0 1018221
02:00+9n496325 0.0 1018314
05:00+10n711535 0.0 1017751
08:00+11n7105369 0.0 10171004
11:00+13nne994174 0.0 10182055
14:00+11n8856100 0.2 10181558
17:00+11sw546196 0.4 10171138
20:00+9nnw5772100 1.4 1019520
18 april, sun
sun1823:00+9w347297 0.1 1020183
02:00+8w1278100 0.1 101997
05:00+7wnw338689 0.1 101894
08:00+8nnw33816 0.4 101975
11:00+14ne46494 0.0 10201437
14:00+15ese544410 0.0 10201439
17:00+14s444878 0.0 10201179
20:00+13sw46554 0.0 1020536
19 april, mon
mon1923:00+9sw46700 0.0 1022265
02:00+9sw36780 0.0 1021268
05:00+9sw35800 0.0 1020172
08:00+10wsw36785 0.0 1019170
11:00+17sw67535 0.0 1018903
14:00+18sw78535 0.0 10171007
17:00+18sw675587 0.0 1015881
20:00+14ssw4571100 0.0 1014167
20 april, tue
tue2023:00+13ssw2383100 0.0 101572
02:00+13ssw2280100 0.0 101459
05:00+13s2376100 0.0 101361
08:00+14sse1176100 0.0 101224
11:00+17s565968 0.0 1012718
14:00+18sse565799 0.0 1011908
17:00+18se336267 0.0 1009898
20:00+14n4679100 0.8 1010174